Location: Boiro
(42.6475°N, 8.8834°W)
Time: 19:01:22
(UTC+01:00)

A-11 Canister half - Pass Details

Date: 06 December 2021
Orbit: 1516 x 1684 km, 47.2° (Epoch: 26 January)

Event Time Altitude Azimuth Distance (km) Brightness Sun altitude
Rises 11:33:43 0° 282° (WNW) 4,826 11.2 19.8°
Reaches altitude 10° 11:36:50 10° 285° (WNW) 3,861 10.8 20.1°
Maximum altitude 11:46:46 71° 9° (N) 1,742 9.5 20.9°
Drops below altitude 10° 11:56:56 10° 94° (E) 3,945 11.6 21.6°
Sets 12:00:09 0° 97° (E) 4,935 12.0 21.8°
